Tracking 28790 objects as of 19-Apr-2024
HD Live streaming from Space Station
objects crossing your sky now

STARLINK-5201

Track STARLINK-5201 now!
10-day predictions
STARLINK-5201 is classified as:


NORAD ID: 54076
Int'l Code: 2022-136AB
Perigee: 545.9 km
Apogee: 547.9 km
Inclination: 53.2 °
Period: 95.4 minutes
Semi major axis: 6917 km
RCS: Unknown
Launch date: October 20, 2022
Source: United States (US)
Launch site: AIR FORCE EASTERN TEST RANGE (AFETR)
Your satellite tracking list
Your tracking list is empty




NASA's NSSDC Master Catalog

Two Line Element Set (TLE):
1 54076U 22136AB  24109.49262650 -.00003601  00000-0 -20833-3 0  9997
2 54076  53.2154 202.1093 0001430 113.5622 246.5520 15.08828295 82652
Source of the keplerian elements: AFSPC